Lapse_Rate
6.2 6.1 5.9 5.7 5.7 5.8 5.9 5.8 5.8 5.9 5.8 5.7 5.9 5.9 6.0 6.1 6.2 6.3 6.4 6.1 6.2 6.2 6.0 5.9 5.8 6.0 6.2 6.1 6.0 5.7 5.5 5.4 5.4 5.1 5.1 5.2 5.1 5.0 4.9 4.8 4.9 5.1 5.5
6.5 6.2 6.0 5.9 5.8 5.8 5.6 5.7 5.9 5.9 6.0 5.8 5.9 6.0 6.1 6.1 6.1 6.2 6.1 6.1 6.1 6.1 6.0 6.1 6.1 6.1 6.2 5.9 6.0 5.8 5.6 5.1 5.3 5.2 5.1 5.1 5.1 5.1 5.1 5.0 5.3 5.8 5.9
6.4 6.2 6.1 6.0 5.9 5.8 5.7 6.0 5.9 5.8 6.0 5.9 5.8 5.9 6.0 6.1 6.1 6.0 5.9 6.0 6.1 5.9 5.8 5.9 6.1 6.1 6.1 5.9 5.8 5.7 5.5 5.3 5.2 5.0 5.1 5.0 5.0 5.1 5.5 5.8 6.0 6.1 6.3
6.2 6.2 6.1 6.1 6.1 5.9 6.1 6.1 6.2 6.1 6.0 6.2 6.0 5.9 5.9 5.8 5.8 5.8 5.7 5.7 5.7 5.8 5.8 6.0 6.0 6.1 6.1 5.8 5.6 5.6 5.4 5.3 4.9 5.2 5.0 5.4 5.5 6.0 6.1 6.2 5.9 6.1 6.5
6.2 6.2 6.1 6.0 6.2 5.6 5.9 6.1 6.4 6.4 6.1 6.2 6.2 6.2 6.0 5.9 6.0 5.8 5.7 5.7 5.6 5.8 5.8 6.0 5.9 6.0 5.8 5.9 5.4 5.4 5.4 5.1 5.1 5.5 5.7 6.1 6.3 6.1 6.4 6.5 6.5 6.6 6.4
6.2 6.4 6.2 6.1 6.5 6.0 6.0 6.1 6.0 6.3 6.3 6.2 6.2 6.5 6.3 6.2 6.1 6.1 5.7 5.4 5.6 5.4 5.9 6.1 5.7 5.7 5.7 5.4 5.1 5.3 5.4 5.4 6.0 6.1 6.3 6.3 6.2 6.2 6.4 6.4 6.2 6.4 6.4
6.3 6.4 6.2 6.3 6.6 6.1 6.0 6.1 6.2 6.1 6.5 6.3 6.4 6.4 6.2 6.1 6.3 5.9 5.5 5.0 5.4 5.5 6.0 5.4 5.3 5.1 5.0 5.4 5.6 5.6 5.7 5.9 6.1 6.0 6.2 6.3 6.3 6.3 6.3 6.4 6.4 6.4 6.6
6.6 6.5 6.3 6.1 6.5 6.6 6.3 6.2 6.2 6.3 6.4 6.2 6.3 6.5 6.3 6.1 6.1 5.8 5.8 5.5 5.3 5.4 5.3 5.5 5.5 5.5 5.4 5.6 5.7 5.7 5.9 6.1 6.2 5.9 6.0 6.1 6.1 6.3 6.5 6.6 6.5 6.5 6.5
7.0 6.7 6.7 6.3 6.4 6.6 6.8 6.5 6.4 6.4 6.4 6.3 6.4 6.4 6.1 6.0 6.2 5.9 5.8 5.7 5.7 5.8 5.7 5.7 5.8 5.8 5.8 5.7 5.8 6.1 6.2 6.1 6.2 6.2 6.1 6.2 6.3 6.4 6.5 6.4 6.2 6.1 5.9
7.2 7.0 7.0 6.8 6.6 6.6 6.7 6.7 6.6 6.4 6.3 6.4 6.5 6.2 6.2 6.1 6.1 6.3 6.4 5.9 5.9 6.0 6.2 5.9 6.1 5.9 5.9 6.1 6.0 6.2 6.4 6.6 6.4 6.2 6.4 6.5 6.5 6.3 6.2 6.0 5.8 5.5 5.5
7.5 7.3 7.5 7.1 7.0 6.8 6.6 6.7 6.7 6.5 6.3 6.5 6.5 6.6 6.5 6.4 6.4 6.4 6.3 6.2 6.1 6.2 6.1 6.2 6.0 6.1 6.2 6.3 6.3 6.2 6.1 5.9 5.9 6.0 6.1 5.8 5.7 5.7 5.8 5.8 5.9 6.0 6.1
7.8 7.6 7.7 7.6 7.4 7.2 7.0 6.8 6.6 6.7 6.6 6.6 6.8 6.8 6.7 6.7 6.6 6.7 6.7 6.7 6.6 6.7 6.7 6.5 6.4 6.5 6.4 6.3 6.1 6.0 5.8 5.6 5.6 5.7 5.7 5.8 5.9 5.9 5.9 5.8 5.8 6.0 6.3
8.0 7.9 7.9 7.7 7.5 7.4 7.2 7.1 7.0 6.9 6.8 6.7 6.9 7.0 7.1 7.1 7.1 7.1 7.0 6.8 6.7 6.5 6.5 6.5 6.5 6.4 6.3 6.1 6.0 5.7 5.5 5.5 5.8 6.0 6.0 6.0 6.0 6.1 6.1 6.1 6.2 6.0 6.0
8.0 7.9 7.9 7.8 7.6 7.4 7.3 7.3 7.3 7.3 7.1 7.0 6.9 7.1 7.1 7.1 7.1 7.0 6.9 6.8 6.7 6.6 6.6 6.5 6.3 6.2 6.1 6.1 6.0 5.9 5.9 6.1 6.2 5.9 5.8 6.0 6.2 6.2 6.1 5.9 5.7 5.7 5.7
7.8 8.0 8.0 7.8 7.7 7.5 7.4 7.4 7.4 7.4 7.5 7.4 7.2 7.3 7.5 7.4 7.2 7.0 6.9 6.8 6.7 6.6 6.5 6.5 6.5 6.3 6.2 6.2 6.1 6.0 6.0 5.9 5.8 5.8 6.0 6.1 6.0 6.0 5.9 6.0 6.0 5.8 5.8
7.7 7.8 8.1 8.0 7.8 7.7 7.6 7.6 7.6 7.6 7.6 7.6 7.6 7.5 7.4 7.2 7.2 7.1 6.9 6.8 6.6 6.7 6.7 6.6 6.4 6.3 6.2 6.2 6.1 6.1 6.0 6.0 6.1 6.1 6.2 6.2 6.1 6.2 6.2 5.9 5.9 5.9 5.0
7.8 7.8 7.8 8.1 8.0 7.9 7.7 7.7 7.7 7.7 7.7 7.7 7.7 7.7 7.5 7.4 7.3 7.2 7.1 7.0 6.8 6.8 6.9 6.8 6.6 6.4 6.2 6.2 6.2 6.1 6.1 6.1 6.1 6.1 6.1 6.1 6.1 6.1 6.0 5.9 6.0 5.9 5.1
8.0 8.0 8.0 7.9 8.1 8.1 8.0 7.9 7.9 7.8 7.8 7.7 7.7 7.7 7.6 7.5 7.5 7.4 7.2 7.2 7.2 7.1 6.9 6.8 6.8 6.5 6.4 6.3 6.2 6.2 6.2 6.2 6.2 6.2 6.2 6.2 6.2 6.0 5.9 5.9 4.7 4.3 5.3
8.2 8.2 8.2 8.3 8.1 8.1 8.1 8.0 8.0 8.0 7.9 7.8 7.8 7.7 7.7 7.5 7.4 7.5 7.4 7.5 7.6 7.5 7.3 7.2 6.9 6.8 6.7 6.5 6.5 6.4 6.4 6.4 6.3 6.2 6.3 6.3 6.1 5.9 5.8 4.3 4.1 5.0 5.3
7.9 8.2 8.2 8.4 8.4 8.2 8.1 8.0 8.0 8.0 8.0 8.0 8.0 7.9 7.8 7.7 7.6 7.6 7.6 7.6 7.7 7.5 7.1 7.0 7.2 7.1 6.9 6.7 6.7 6.6 6.5 6.5 6.3 6.3 6.2 5.9 5.6 5.7 5.1 4.6 5.0 5.1 5.3
7.8 8.0 8.3 8.4 8.3 8.2 8.1 8.0 7.9 7.9 8.1 8.2 8.0 7.8 7.9 7.9 7.9 7.8 7.6 7.5 7.4 7.2 7.3 7.3 7.2 7.3 7.1 7.0 6.9 6.9 6.6 6.5 6.3 6.1 6.0 6.0 6.0 5.5 4.9 4.9 5.1 5.4 5.7
7.6 7.8 8.0 8.2 8.3 8.2 8.1 8.1 8.1 8.0 7.9 7.9 8.1 8.1 8.0 8.0 7.8 7.7 7.8 7.8 7.4 7.3 7.0 6.8 6.9 6.5 6.7 6.7 6.7 6.5 6.6 6.4 6.3 6.0 6.0 5.9 5.8 5.4 4.8 5.2 5.4 5.6 5.5
7.5 7.6 7.7 8.0 8.1 8.0 7.8 7.9 7.9 8.0 8.1 7.8 7.8 7.8 7.5 7.4 7.5 7.5 7.6 7.6 7.5 7.4 7.4 7.0 6.6 6.2 5.7 5.6 6.0 6.3 6.2 6.4 6.2 5.9 5.9 5.5 4.4 4.5 4.7 5.4 5.4 5.4 5.6
7.5 7.6 7.5 7.5 7.7 7.7 7.5 7.4 7.6 7.8 7.8 7.9 7.8 7.9 7.6 7.3 7.2 7.2 7.0 7.2 6.9 6.9 6.8 6.9 6.3 6.3 5.7 6.1 5.1 5.3 5.3 5.1 5.3 6.0 5.8 5.3 4.0 4.4 5.3 5.3 5.4 5.2 5.6
7.5 7.5 7.4 7.4 7.4 7.4 7.5 7.5 7.4 7.4 7.5 7.4 7.4 7.7 7.4 7.2 7.2 6.9 6.9 7.0 7.0 6.9 6.7 6.8 6.7 6.2 6.3 5.6 5.4 5.2 5.0 5.2 5.2 5.3 5.5 4.9 4.4 5.0 5.2 5.3 5.1 5.4 5.9
7.8 7.6 7.3 7.3 7.4 7.4 7.4 7.4 7.4 7.5 7.2 7.3 7.3 7.3 7.3 7.4 7.3 7.2 7.2 6.9 6.8 6.9 6.9 6.8 6.6 5.9 5.5 5.6 5.3 5.4 5.4 5.0 4.9 4.3 4.8 3.7 4.4 5.1 5.3 5.3 5.5 5.8 6.1
Wind_Speed
5 4 5 5 5 5 5 4 5 4 4 4 5 5 5 6 6 7 6 6 9 8 8 8 9 9 8 6 7 8 8 6 8 4 3 3 3 6 6 9 10 12 12
5 4 5 6 5 6 5 5 5 5 4 5 5 5 6 6 6 7 8 10 10 8 6 9 9 8 9 8 7 8 8 6 7 10 3 2 3 4 6 5 6 7 10
5 6 5 6 6 6 5 5 5 6 6 6 5 5 6 7 8 6 7 8 9 8 6 8 9 11 9 8 8 8 7 7 7 5 3 2 2 2 2 1 1 5 9
7 6 7 6 6 6 5 5 6 5 6 6 5 6 5 6 7 7 7 6 6 6 5 7 8 10 11 10 9 8 7 7 6 4 3 3 2 2 2 3 3 1 2
7 7 7 6 5 6 6 5 6 5 5 5 6 6 6 6 6 8 7 7 6 7 6 6 5 7 10 9 7 7 8 5 5 3 2 2 2 2 4 3 2 1 2
8 7 7 4 6 6 7 6 7 5 4 5 6 6 6 4 12 10 8 6 5 6 7 6 8 12 11 12 8 6 5 7 6 4 3 3 3 3 3 3 3 2 1
8 7 7 5 6 7 7 5 7 6 5 6 6 6 5 6 13 14 12 5 4 6 6 7 8 6 9 7 6 8 9 10 8 6 5 5 4 6 5 3 3 4 3
8 8 7 6 6 7 7 7 5 5 6 5 6 6 6 3 9 13 13 10 6 5 6 6 7 9 7 6 6 4 2 4 6 5 7 7 6 7 6 5 5 3 1
11 9 7 7 6 7 7 8 6 6 4 4 5 7 7 3 7 11 10 7 7 6 5 5 7 7 9 11 7 6 6 4 4 2 13 9 8 6 10 5 3 4 1
12 12 8 8 7 8 8 8 5 5 6 5 5 5 8 5 7 10 8 4 5 4 4 5 9 9 11 10 8 7 6 3 3 2 3 5 6 9 9 5 5 3 2
14 12 9 8 9 8 7 5 6 6 6 6 6 4 6 6 5 10 12 5 6 5 5 4 3 6 11 12 10 6 5 5 3 4 3 3 4 5 5 8 7 5 3
13 13 11 9 9 7 10 5 6 7 7 6 5 4 3 5 6 8 11 10 7 7 6 4 5 8 11 11 8 10 11 7 5 5 5 4 5 4 4 9 12 14 15
11 13 12 10 8 10 11 7 5 6 6 5 5 4 4 4 3 6 9 11 10 5 4 7 11 9 12 9 9 10 9 5 5 5 4 3 3 4 6 6 14 16 15
12 11 10 11 9 10 9 9 7 6 5 5 5 6 4 4 4 3 3 3 6 5 7 6 5 6 6 6 5 4 4 4 5 5 4 3 2 4 4 2 3 3 4
11 10 11 10 12 10 9 9 9 9 9 7 7 8 7 5 6 9 9 5 5 5 8 4 3 2 3 3 2 3 3 3 5 4 5 5 4 3 2 2 3 3 4
11 9 10 9 9 9 8 4 8 2 11 11 13 9 5 10 14 16 14 11 13 16 4 4 4 4 6 5 4 4 2 5 5 6 4 5 5 6 6 3 3 4 5
14 11 9 10 10 10 9 8 8 3 5 7 9 13 13 13 15 18 17 14 17 9 3 4 6 7 6 5 5 5 4 4 6 6 6 5 5 5 4 3 5 6 5
12 15 11 11 10 10 10 10 8 8 6 3 1 4 11 13 17 18 16 12 3 2 3 5 6 6 5 5 5 5 6 6 5 6 5 6 5 6 7 7 4 5 4
11 11 11 11 11 11 10 9 8 8 7 4 2 2 6 8 7 6 21 9 9 9 7 6 5 5 5 5 6 6 9 9 8 7 5 6 7 8 7 5 5 5 5
12 15 13 11 9 10 9 9 8 8 8 7 6 6 5 4 4 6 9 9 9 10 10 9 5 6 7 8 8 9 9 9 8 7 8 8 8 6 7 8 5 4 2
10 10 14 11 11 11 11 10 10 10 9 8 9 8 12 7 8 9 11 10 10 11 10 8 7 7 8 9 10 11 11 9 8 8 7 5 6 6 7 5 4 4 5
10 11 11 12 11 10 11 10 9 10 10 9 8 6 12 9 7 8 11 12 12 9 6 8 7 8 9 12 13 12 12 11 10 10 8 8 10 10 6 4 5 5 5
10 11 12 10 11 12 9 10 10 10 9 9 9 6 8 10 8 9 9 9 6 7 7 8 9 9 9 11 14 13 13 13 13 12 11 12 6 5 7 6 7 6 5
10 11 12 11 9 10 10 9 10 11 11 9 8 7 9 9 10 10 7 7 9 10 10 10 9 12 10 11 8 14 16 16 19 17 18 10 6 8 7 8 7 8 6
6 6 7 9 8 8 8 8 8 7 7 7 7 8 10 10 10 6 6 8 8 8 7 9 9 16 18 21 21 21 24 21 18 21 20 14 10 10 9 8 8 7 6
5 6 5 5 5 5 5 6 8 9 10 8 7 8 9 10 8 7 7 8 9 9 10 7 13 22 27 29 31 36 36 28 24 23 17 16 9 8 9 10 11 7 7
Wind_Direction
201 163 178 147 149 148 153 159 154 146 152 150 148 141 139 125 123 98 84 90 101 101 117 117 109 109 107 98 99 111 112 113 127 94 97 104 87 124 150 185 188 199 204
171 147 142 131 137 140 155 163 148 155 146 144 136 128 120 118 111 116 110 116 119 115 107 123 118 111 103 109 108 111 104 120 125 120 104 106 109 166 183 181 189 204 215
162 124 135 133 134 136 141 145 130 133 134 128 126 125 125 125 118 117 115 112 127 135 125 131 129 125 118 117 109 110 121 118 112 121 124 100 106 165 151 87 171 226 229
152 128 139 163 148 138 132 133 134 135 129 130 135 131 123 123 125 118 118 112 107 120 108 123 137 135 129 127 118 118 115 113 126 129 127 136 151 113 113 160 230 161 264
147 139 162 179 137 140 138 139 132 134 138 144 138 128 130 133 133 132 127 123 124 114 103 118 111 115 122 122 128 128 130 141 152 147 118 119 150 157 190 195 165 82 273
152 159 171 176 157 169 137 140 125 134 129 121 129 130 123 128 137 117 124 119 128 128 113 103 119 117 111 121 122 140 154 152 156 148 154 178 195 187 164 175 150 104 333
158 166 164 158 142 165 142 143 131 121 112 122 128 123 115 131 137 130 124 132 112 113 115 128 133 143 141 161 166 195 189 203 181 152 170 187 174 201 161 168 158 181 193
164 168 169 156 153 133 138 157 130 129 133 128 126 121 123 136 152 146 145 154 145 145 151 151 142 164 182 155 177 198 180 171 175 197 187 185 203 173 183 173 167 156 14
172 171 175 161 163 134 133 142 137 127 126 132 133 129 125 111 176 155 136 133 139 152 158 165 151 163 184 174 155 136 102 88 54 67 174 176 200 186 173 123 109 92 45
174 177 175 164 161 155 151 144 151 146 148 142 145 141 132 121 148 156 133 132 132 136 137 164 162 157 163 172 144 143 125 161 147 84 44 41 66 77 77 78 140 132 129
175 176 172 172 165 165 163 148 143 146 141 147 153 164 141 136 112 135 140 144 148 150 150 152 137 143 147 166 158 151 163 148 125 114 74 78 86 86 89 104 113 123 121
166 172 179 179 171 163 162 161 152 138 145 161 158 169 195 160 153 120 144 136 145 147 168 164 153 165 128 131 127 131 125 112 81 67 74 65 86 91 76 75 77 81 77
164 173 177 174 166 162 166 165 152 160 150 164 171 185 197 181 163 149 137 148 161 145 163 161 146 136 111 87 106 122 106 101 109 101 107 86 71 118 118 87 78 85 79
174 172 167 167 165 167 174 170 171 173 166 163 173 185 196 174 173 182 168 141 136 106 103 108 127 119 86 116 111 94 102 115 137 128 115 119 111 66 73 68 90 93 91
171 169 169 171 171 171 174 176 181 194 183 177 186 183 178 191 205 179 172 179 179 150 114 100 113 119 139 160 111 113 106 121 123 122 121 108 100 115 115 112 92 76 77
170 169 172 170 171 172 163 138 35 146 190 181 170 169 202 197 165 178 184 173 150 147 111 145 179 179 185 179 162 142 127 125 130 129 124 138 141 127 109 90 105 109 111
176 169 168 169 170 167 173 176 178 34 89 199 200 194 184 191 184 178 182 173 163 146 147 176 182 185 194 167 176 159 149 162 142 143 143 137 122 107 101 129 114 101 94
173 164 168 174 176 173 177 181 179 183 191 198 101 200 218 203 188 186 168 120 134 279 167 180 196 188 172 169 166 155 152 140 137 139 133 131 119 131 131 120 89 101 108
167 174 174 176 178 177 176 178 181 184 191 169 139 115 75 86 101 129 159 183 189 202 206 199 184 175 168 160 155 149 149 151 152 144 130 127 137 132 119 89 90 101 114
180 175 172 175 173 178 180 179 182 188 193 191 190 198 141 124 156 166 189 199 195 202 205 207 186 165 160 158 153 151 146 150 149 142 142 143 133 132 121 117 129 128 115
180 174 170 172 181 186 185 190 190 190 195 197 205 190 180 177 185 184 189 202 205 207 206 189 170 163 161 159 157 158 157 153 148 140 129 99 105 111 105 120 135 106 91
180 174 179 182 184 189 193 191 192 191 197 200 209 191 183 201 186 189 196 203 202 198 175 167 159 169 168 166 164 161 158 151 146 142 131 133 147 129 131 146 108 95 93
174 172 185 188 189 187 188 191 193 196 192 206 206 178 180 207 206 202 201 197 172 166 161 161 162 161 159 165 167 162 156 155 152 146 145 134 133 121 131 126 118 103 91
176 178 181 188 187 193 191 189 196 194 197 197 197 181 189 203 207 200 193 184 186 169 163 156 153 146 131 117 115 132 138 141 140 141 122 115 126 131 125 116 114 117 112
153 159 176 187 190 190 188 192 193 180 187 189 180 180 195 205 208 194 170 167 156 145 142 139 136 134 132 124 116 109 114 118 127 121 120 138 136 132 124 122 123 112 106
145 163 168 151 157 168 180 194 205 203 207 202 195 189 186 189 178 151 149 145 139 132 131 129 138 134 126 123 128 125 122 124 126 132 141 131 131 125 121 124 121 114 117